WA7ZVY-4 Weather Reports


Display with metric or nautical units.
time (UTC)temp
F
wind
direction
speed
MPH
gust
MPH
rain 1hr
in
rain 24hr
in
rain mn
in
humidity
%
barometer
mb
20260503204415 67 253 3.0 5.0 0.00 0.00 0.00 65 1009.3
20260503204155 67 260 4.0 5.0 0.00 0.00 0.00 66 1009.4
20260503203858 67 288 3.0 5.0 0.00 0.00 0.00 66 1009.4
20260503203648 67 329 2.0 5.0 0.00 0.00 0.00 66 1009.5
20260503203341 67 329 3.0 5.0 0.00 0.00 0.00 66 1009.5
20260503203142 67 271 2.0 5.0 0.00 0.00 0.00 66 1009.5
20260503202824 67 285 3.0 5.0 0.00 0.00 0.00 66 1009.5
20260503202634 67 337 3.0 4.0 0.00 0.00 0.00 66 1009.6
20260503202307 67 252 3.0 3.0 0.00 0.00 0.00 66 1009.4
20260503202127 68 299 2.0 7.0 0.00 0.00 0.00 66 1009.4
20260503201750 68 285 2.0 7.0 0.00 0.00 0.00 66 1009.5
20260503201620 68 285 4.0 7.0 0.00 0.00 0.00 66 1009.4
20260503201233 68 267 2.0 7.0 0.00 0.00 0.00 66 1009.5
20260503200716 67 274 3.0 7.0 0.00 0.00 0.00 66 1009.6
20260503200606 67 274 3.0 7.0 0.00 0.00 0.00 66 1009.6
20260503200159 67 280 4.0 6.0 0.00 0.00 0.00 66 1009.6
20260503200059 67 280 2.0 6.0 0.00 0.00 0.00 67 1009.6
20260503195642 67 261 2.0 6.0 0.00 0.00 0.00 67 1009.6
20260503195552 67 261 2.0 6.0 0.00 0.00 0.00 67 1009.6
20260503195125 67 239 3.0 6.0 0.00 0.00 0.00 67 1009.7
20260503195045 67 239 4.0 6.0 0.00 0.00 0.00 67 1009.7
20260503194608 67 268 2.0 5.0 0.00 0.00 0.00 67 1009.7
20260503194538 67 268 2.0 5.0 0.00 0.00 0.00 68 1009.5
20260503194052 67 267 4.0 5.0 0.00 0.00 0.00 68 1009.6
20260503194031 67 267 4.0 5.0 0.00 0.00 0.00 68 1009.6
20260503193524 67 333 1.0 5.0 0.00 0.00 0.00 68 1009.7
20260503193018 68 292 3.0 5.0 0.00 0.00 0.00 68 1009.7
20260503192500 68 261 2.0 3.0 0.00 0.00 0.00 68 1009.7
20260503192003 68 261 1.0 3.0 0.00 0.00 0.00 69 1009.8
20260503191943 68 261 1.0 3.0 0.00 0.00 0.00 70 1009.8
20260503191426 67 0 0.0 0.0 0.00 0.00 0.00 70 1009.8
20260503190949 67 0 0.0 5.0 0.00 0.00 0.00 71 1009.8
20260503190909 67 0 0.0 5.0 0.00 0.00 0.00 71 1009.8
20260503190442 66 257 2.0 5.0 0.00 0.00 0.00 71 1009.9
20260503190352 66 257 3.0 5.0 0.00 0.00 0.00 71 1009.9
20260503185835 66 246 3.0 5.0 0.00 0.00 0.00 71 1009.8
20260503185428 66 280 5.0 5.0 0.00 0.00 0.00 72 1009.8
20260503185318 66 235 1.0 5.0 0.00 0.00 0.00 72 1009.8
20260503184921 65 0 0.0 5.0 0.00 0.00 0.00 73 1009.9
20260503184801 65 0 0.0 5.0 0.00 0.00 0.00 72 1009.9
20260503184414 65 0 0.0 5.0 0.00 0.00 0.00 72 1009.9
20260503183907 65 340 2.0 5.0 0.00 0.00 0.00 72 1010.0
20260503183727 65 322 5.0 5.0 0.00 0.00 0.00 72 1009.8
20260503183400 65 0 0.0 0.0 0.00 0.00 0.00 73 1009.9
20260503182853 64 0 0.0 3.0 0.00 0.00 0.00 73 1010.0
20260503182653 64 0 0.0 3.0 0.00 0.00 0.00 73 1010.0
20260503182346 64 0 0.0 3.0 0.00 0.00 0.00 73 1010.1
20260503182136 64 278 1.0 3.0 0.00 0.00 0.00 73 1010.1
20260503181839 64 0 0.0 3.0 0.00 0.00 0.00 72 1010.2
20260503181619 64 0 0.0 3.0 0.00 0.00 0.00 72 1010.1
20260503181332 64 0 0.0 3.0 0.00 0.00 0.00 73 1010.1
20260503181102 64 278 3.0 3.0 0.00 0.00 0.00 73 1010.2
20260503180825 64 0 0.0 3.0 0.00 0.00 0.00 73 1010.2
20260503180545 64 0 0.0 3.0 0.00 0.00 0.00 74 1010.2
20260503180318 64 0 0.0 3.0 0.00 0.00 0.00 74 1010.2
20260503180028 64 0 0.0 3.0 0.00 0.00 0.00 74 1010.2
20260503175811 64 0 0.0 3.0 0.00 0.00 0.00 73 1010.2
20260503175511 64 282 2.0 3.0 0.00 0.00 0.00 74 1010.1
20260503175305 64 282 3.0 3.0 0.00 0.00 0.00 74 1010.1
20260503174954 64 280 1.0 4.0 0.00 0.00 0.00 74 1010.1
20260503174757 64 0 0.0 4.0 0.00 0.00 0.00 74 1010.1
20260503174437 64 263 1.0 4.0 0.00 0.00 0.00 74 1010.1
20260503174250 64 0 0.0 4.0 0.00 0.00 0.00 75 1010.1
20260503173920 64 0 0.0 4.0 0.00 0.00 0.00 75 1010.1
20260503173743 64 274 2.0 4.0 0.00 0.00 0.00 75 1010.1
20260503173403 64 274 2.0 4.0 0.00 0.00 0.00 75 1010.2
20260503173236 64 0 0.0 0.0 0.00 0.00 0.00 75 1010.1
20260503172846 63 0 0.0 5.0 0.00 0.00 0.00 76 1010.0
20260503172729 63 0 0.0 5.0 0.00 0.00 0.00 76 1010.1
20260503172331 63 0 0.0 5.0 0.00 0.00 0.00 76 1010.0
20260503172222 63 295 1.0 5.0 0.00 0.00 0.00 76 1010.0
20260503171812 63 295 3.0 5.0 0.00 0.00 0.00 76 1010.1
20260503171715 63 285 2.0 5.0 0.00 0.00 0.00 76 1010.1
20260503171255 63 0 0.0 5.0 0.00 0.00 0.00 77 1010.0
20260503171208 63 221 1.0 5.0 0.00 0.00 0.00 77 1010.1
20260503170738 63 268 4.0 5.0 0.00 0.00 0.00 77 1010.0
20260503170701 63 268 2.0 5.0 0.00 0.00 0.00 77 1010.0
20260503170221 63 198 2.0 5.0 0.00 0.00 0.00 78 1010.1
20260503170154 63 198 4.0 5.0 0.00 0.00 0.00 78 1010.1
20260503150920 58 0 0.0 0.0 0.00 0.00 0.00 100 1009.7
20260503150607 58 0 0.0 0.0 0.00 0.00 0.00 100 1009.7
20260503150413 57 0 0.0 0.0 0.00 0.00 0.00 100 1009.7
20260503140242 50 0 0.0 0.0 0.00 0.00 0.00 100 1009.6
20260503131139 48 0 0.0 0.0 0.00 0.00 0.00 100 1009.7
20260503130953 48 0 0.0 0.0 0.00 0.00 0.00 100 1009.7
20260503130632 48 0 0.0 0.0 0.00 0.00 0.00 100 1009.6
20260503130435 48 0 0.0 0.0 0.00 0.00 0.00 100 1009.6
20260503130124 48 0 0.0 0.0 0.00 0.00 0.00 100 1009.6
20260503110822 48 0 0.0 0.0 0.00 0.00 0.00 100 1009.9
20260503110344 48 0 0.0 0.0 0.00 0.00 0.00 100 1009.8
20260503110304 48 0 0.0 0.0 0.00 0.00 0.00 100 1009.9
20260503100219 48 0 0.0 0.0 0.00 0.00 0.00 100 1010.0
20260503090133 49 0 0.0 0.0 0.00 0.00 0.00 100 1010.5
20260503081452 50 0 0.0 0.0 0.00 0.00 0.00 100 1010.8
20260503081400 50 0 0.0 0.0 0.00 0.00 0.00 100 1010.7
20260503080945 50 0 0.0 0.0 0.00 0.00 0.00 99 1010.6
20260503080843 50 0 0.0 0.0 0.00 0.00 0.00 100 1010.7
20260503080438 50 0 0.0 0.0 0.00 0.00 0.00 99 1010.7
20260503080326 50 0 0.0 0.0 0.00 0.00 0.00 99 1010.7
20260503072849 51 0 0.0 0.0 0.00 0.00 0.00 99 1011.0
20260503072627 51 0 0.0 0.0 0.00 0.00 0.00 99 1011.0
20260503072342 51 0 0.0 0.0 0.00 0.00 0.00 99 1011.2
20260503072111 51 0 0.0 0.0 0.00 0.00 0.00 99 1011.2
20260503071835 51 0 0.0 0.0 0.00 0.00 0.00 99 1011.1
20260503071553 51 0 0.0 0.0 0.00 0.00 0.00 99 1011.3
20260503071328 51 0 0.0 0.0 0.00 0.00 0.00 99 1011.2
20260503071036 51 0 0.0 0.0 0.00 0.00 0.00 99 1011.3
20260503070821 51 0 0.0 0.0 0.00 0.00 0.00 99 1011.4
20260503070519 51 0 0.0 0.0 0.00 0.00 0.00 99 1011.3
20260503070314 51 0 0.0 0.0 0.00 0.00 0.00 99 1011.3
20260503060150 51 0 0.0 0.0 0.00 0.00 0.00 98 1011.4
20260503055121 51 0 0.0 0.0 0.00 0.00 0.00 98 1011.4
20260503054629 51 0 0.0 0.0 0.00 0.00 0.00 98 1011.4
20260503054604 51 0 0.0 0.0 0.00 0.00 0.00 98 1011.5
20260503054122 51 0 0.0 0.0 0.00 0.00 0.00 98 1011.4
20260503054047 51 0 0.0 0.0 0.00 0.00 0.00 98 1011.4
20260503053615 52 0 0.0 0.0 0.00 0.00 0.00 98 1011.4
20260503053530 52 0 0.0 0.0 0.00 0.00 0.00 98 1011.4
20260503053108 52 0 0.0 0.0 0.00 0.00 0.00 98 1011.5
20260503052601 52 0 0.0 0.0 0.00 0.00 0.00 98 1011.6
20260503052456 52 0 0.0 0.0 0.00 0.00 0.00 98 1011.6
20260503052054 52 0 0.0 0.0 0.00 0.00 0.00 98 1011.7
20260503051939 52 0 0.0 0.0 0.00 0.00 0.00 98 1011.7
20260503051547 52 0 0.0 0.0 0.00 0.00 0.00 98 1011.6
20260503051422 52 0 0.0 0.0 0.00 0.00 0.00 98 1011.7
20260503050905 52 0 0.0 0.0 0.00 0.00 0.00 98 1011.7
20260503050533 52 0 0.0 0.0 0.00 0.00 0.00 98 1011.7
20260503050348 52 0 0.0 2.0 0.00 0.00 0.00 98 1011.6
20260503050026 52 0 0.0 2.0 0.00 0.00 0.00 98 1011.6
20260503045831 52 0 0.0 2.0 0.00 0.00 0.00 98 1011.7
20260503045519 52 0 0.0 2.0 0.00 0.00 0.00 98 1011.6
20260503045314 52 0 0.0 2.0 0.00 0.00 0.00 98 1011.5
20260503045012 52 0 0.0 2.0 0.00 0.00 0.00 98 1011.4
20260503044757 52 352 1.0 2.0 0.00 0.00 0.00 97 1011.3
20260503044240 52 0 0.0 0.0 0.00 0.00 0.00 97 1011.4
20260503044049 52 0 0.0 0.0 0.00 0.00 0.00 97 1011.4
20260503043958 52 0 0.0 0.0 0.00 0.00 0.00 97 1011.4
20260503043723 52 0 0.0 0.0 0.00 0.00 0.00 97 1011.5
20260503043451 52 0 0.0 0.0 0.00 0.00 0.00 97 1011.7
20260503043206 52 0 0.0 0.0 0.00 0.00 0.00 97 1011.6
20260503042944 52 0 0.0 0.0 0.00 0.00 0.00 97 1011.6
20260503042649 52 0 0.0 0.0 0.00 0.00 0.00 97 1011.4
20260503042437 52 0 0.0 0.0 0.00 0.00 0.00 97 1011.4
20260503042132 52 0 0.0 0.0 0.00 0.00 0.00 97 1011.3
20260503041930 52 0 0.0 6.0 0.00 0.00 0.00 97 1011.4
20260503041615 52 0 0.0 6.0 0.00 0.00 0.00 97 1011.3
20260503041423 52 0 0.0 6.0 0.00 0.00 0.00 97 1011.3
20260503041058 52 0 0.0 6.0 0.00 0.00 0.00 97 1011.1
20260503040916 52 0 0.0 6.0 0.00 0.00 0.00 97 1011.1
20260503040541 52 0 0.0 6.0 0.00 0.00 0.00 97 1011.0
20260503040409 52 0 0.0 6.0 0.00 0.00 0.00 96 1011.0
20260503040024 52 0 0.0 0.0 0.00 0.00 0.00 96 1010.9
20260503035902 52 0 0.0 0.0 0.00 0.00 0.00 96 1011.0
20260503034950 52 0 0.0 7.0 0.00 0.00 0.00 96 1011.0
20260503034848 52 0 0.0 7.0 0.00 0.00 0.00 96 1011.0
20260503034433 52 2 4.0 7.0 0.00 0.00 0.00 95 1011.0
20260503034341 52 312 1.0 7.0 0.00 0.00 0.00 95 1011.0
20260503033916 52 354 2.0 6.0 0.00 0.00 0.00 95 1011.0
20260503033834 52 354 5.0 6.0 0.00 0.00 0.00 95 1011.0
20260503033359 53 316 3.0 6.0 0.00 0.00 0.00 94 1011.0
20260503033327 53 316 3.0 6.0 0.00 0.00 0.00 94 1011.1
20260503032843 53 0 0.0 9.0 0.00 0.00 0.00 94 1011.0
20260503032820 53 0 0.0 9.0 0.00 0.00 0.00 94 1011.0
20260503032325 53 0 0.0 9.0 0.00 0.00 0.00 94 1011.0
20260503032313 53 0 0.0 9.0 0.00 0.00 0.00 94 1011.0
20260503031809 53 263 2.0 9.0 0.00 0.00 0.00 94 1011.0
20260503031806 53 263 3.0 9.0 0.00 0.00 0.00 94 1011.0
20260503031259 53 0 0.0 9.0 0.00 0.00 0.00 93 1010.9
20260503031251 53 357 3.0 9.0 0.00 0.00 0.00 93 1010.9
20260503030752 54 303 5.0 9.0 0.00 0.00 0.00 92 1011.0
20260503030734 54 303 6.0 9.0 0.00 0.00 0.00 92 1011.0
20260503030245 54 354 4.0 9.0 0.00 0.00 0.00 92 1011.1
20260503030217 54 354 6.0 9.0 0.00 0.00 0.00 92 1011.1
20260503025738 54 322 4.0 8.0 0.00 0.00 0.00 91 1011.1
20260503025700 54 322 6.0 8.0 0.00 0.00 0.00 91 1011.1
20260503025231 55 288 4.0 6.0 0.00 0.00 0.00 91 1011.1
20260503025143 55 357 4.0 6.0 0.00 0.00 0.00 91 1011.2
20260503024724 55 303 2.0 6.0 0.00 0.00 0.00 91 1011.2
20260503024626 55 357 2.0 6.0 0.00 0.00 0.00 91 1011.3
20260503024217 55 343 5.0 6.0 0.00 0.00 0.00 91 1011.4
20260503024109 55 343 3.0 6.0 0.00 0.00 0.00 90 1011.4
20260503023710 55 330 3.0 8.0 0.00 0.00 0.00 90 1011.3
20260503023552 55 330 2.0 8.0 0.00 0.00 0.00 90 1011.4
20260503023203 55 32 6.0 8.0 0.00 0.00 0.00 90 1011.3
20260503023035 55 32 4.0 8.0 0.00 0.00 0.00 90 1011.3
20260503022657 55 338 3.0 8.0 0.00 0.00 0.00 90 1011.2
20260503022518 55 338 5.0 8.0 0.00 0.00 0.00 90 1011.3
20260503022149 56 331 5.0 6.0 0.00 0.00 0.00 90 1011.3
20260503021642 56 330 4.0 8.0 0.00 0.00 0.00 90 1011.3
20260503021444 56 329 5.0 8.0 0.00 0.00 0.00 90 1011.3
20260503021136 56 347 5.0 8.0 0.00 0.00 0.00 89 1011.3
20260503020927 56 347 3.0 8.0 0.00 0.00 0.00 90 1011.3
20260503020628 56 309 3.0 8.0 0.00 0.00 0.00 90 1011.2
20260503020410 56 309 4.0 8.0 0.00 0.00 0.00 89 1011.1
20260503020121 56 319 7.0 8.0 0.00 0.00 0.00 89 1011.1
20260503015853 56 336 6.0 8.0 0.00 0.00 0.00 89 1011.2
20260503015614 56 354 5.0 8.0 0.00 0.00 0.00 89 1011.2
20260503015337 56 331 4.0 8.0 0.00 0.00 0.00 89 1011.2
20260503015107 56 295 3.0 8.0 0.00 0.00 0.00 89 1011.2
20260503014819 56 8 5.0 8.0 0.00 0.00 0.00 88 1011.2
20260503014600 56 319 4.0 8.0 0.00 0.00 0.00 88 1011.1
20260503014302 56 357 4.0 6.0 0.00 0.00 0.00 88 1011.1
20260503014053 56 329 5.0 6.0 0.00 0.00 0.00 88 1011.1
20260503013744 56 324 9.0 11.0 0.00 0.00 0.00 88 1011.2
20260503013546 56 324 7.0 11.0 0.00 0.00 0.00 87 1011.2
20260503013228 56 330 6.0 11.0 0.00 0.00 0.00 87 1011.3
20260503013039 56 330 7.0 11.0 0.00 0.00 0.00 87 1011.3
20260503012712 56 312 7.0 11.0 0.00 0.00 0.00 87 1011.4
20260503012532 56 333 6.0 11.0 0.00 0.00 0.00 86 1011.4
20260503012154 56 295 8.0 11.0 0.00 0.00 0.00 86 1011.3
20260503012025 57 303 6.0 10.0 0.00 0.00 0.00 86 1011.3
20260503011636 57 302 5.0 10.0 0.00 0.00 0.00 85 1011.3
20260503011518 57 302 6.0 10.0 0.00 0.00 0.00 85 1011.4
20260503011119 57 308 5.0 8.0 0.00 0.00 0.00 85 1011.5
20260503011011 57 301 4.0 8.0 0.00 0.00 0.00 85 1011.4
20260503010602 57 302 6.0 8.0 0.00 0.00 0.00 85 1011.5
20260503010504 57 32 3.0 3.0 0.00 0.00 0.00 85 1011.5
20260503010045 57 309 7.0 13.0 0.00 0.00 0.00 84 1011.5
20260503005957 57 309 5.0 13.0 0.00 0.00 0.00 84 1011.5
20260503005528 58 294 8.0 13.0 0.00 0.00 0.00 83 1011.5
20260503005450 58 294 8.0 13.0 0.00 0.00 0.00 83 1011.6
20260503005011 58 322 5.0 13.0 0.00 0.00 0.00 83 1011.6
20260503004943 58 322 8.0 13.0 0.00 0.00 0.00 83 1011.6
20260503004454 59 23 3.0 10.0 0.00 0.00 0.00 83 1011.6
20260503004436 59 23 5.0 10.0 0.00 0.00 0.00 82 1011.6
20260503003928 59 334 7.0 10.0 0.00 0.00 0.00 83 1011.6
20260503003420 59 54 6.0 10.0 0.00 0.00 0.00 84 1011.6
20260503002904 59 79 4.0 10.0 0.00 0.00 0.00 83 1011.5
20260503002408 59 341 8.0 13.0 0.00 0.00 0.00 85 1011.6
20260503002346 59 350 4.0 13.0 0.00 0.00 0.00 84 1011.6
20260503001900 58 333 7.0 13.0 0.00 0.00 0.00 85 1011.6
20260503001829 58 319 3.0 13.0 0.00 0.00 0.00 85 1011.7
20260503001354 57 50 5.0 13.0 0.00 0.00 0.00 85 1011.6
20260503001312 57 303 3.0 13.0 0.00 0.00 0.00 85 1011.6
20260503000847 57 329 4.0 13.0 0.00 0.00 0.00 85 1011.7
20260503000755 57 313 9.0 13.0 0.00 0.00 0.00 86 1011.7
20260503000339 57 296 7.0 11.0 0.00 0.00 0.00 85 1011.6
20260503000240 57 347 7.0 11.0 0.00 0.00 0.00 85 1011.7
20260502235832 57 316 6.0 11.0 0.00 0.00 0.00 85 1011.7
20260502235721 57 37 7.0 11.0 0.00 0.00 0.00 85 1011.8
20260502235325 57 11 4.0 10.0 0.00 0.00 0.00 85 1011.9
20260502235204 57 327 5.0 8.0 0.00 0.00 0.00 85 1012.0
20260502234819 57 4 3.0 4.0 0.00 0.00 0.00 84 1012.0
20260502234648 57 354 4.0 13.0 0.00 0.00 0.00 84 1012.1
20260502234312 58 15 1.0 13.0 0.00 0.00 0.00 84 1012.0
20260502234130 58 306 6.0 13.0 0.00 0.00 0.00 83 1012.1
20260502233805 58 46 2.0 13.0 0.00 0.00 0.00 83 1012.1
20260502233613 58 310 7.0 13.0 0.00 0.00 0.00 83 1012.1
20260502233258 58 312 6.0 13.0 0.00 0.00 0.00 82 1011.8
20260502233056 58 312 11.0 13.0 0.00 0.00 0.00 81 1011.9
20260502232750 59 0 7.0 13.0 0.00 0.00 0.00 80 1012.0
20260502232539 59 268 10.0 13.0 0.00 0.00 0.00 80 1012.1
20260502232244 59 19 8.0 12.0 0.00 0.00 0.00 80 1012.0
20260502232022 59 19 7.0 12.0 0.00 0.00 0.00 80 1012.1
20260502231736 60 319 5.0 12.0 0.00 0.00 0.00 80 1012.2
20260502231230 60 305 8.0 12.0 0.00 0.00 0.00 80 1012.3
20260502230948 59 274 5.0 12.0 0.00 0.00 0.00 79 1012.4
20260502230722 60 330 7.0 12.0 0.00 0.00 0.00 78 1012.4
20260502230431 60 317 5.0 11.0 0.00 0.00 0.00 77 1012.5
20260502230215 60 334 8.0 11.0 0.00 0.00 0.00 77 1012.5
20260502225914 61 334 7.0 11.0 0.00 0.00 0.00 77 1012.5
20260502225708 61 327 6.0 10.0 0.00 0.00 0.00 77 1012.3
20260502225357 61 327 5.0 16.0 0.00 0.00 0.00 77 1012.4
20260502225201 61 22 8.0 16.0 0.00 0.00 0.00 77 1012.4
20260502224840 61 322 6.0 16.0 0.00 0.00 0.00 78 1012.4
20260502224654 61 317 8.0 16.0 0.00 0.00 0.00 78 1012.5
20260502224324 61 19 9.0 16.0 0.00 0.00 0.00 80 1012.6
20260502224147 61 26 10.0 16.0 0.00 0.00 0.00 81 1012.7
20260502223806 60 337 8.0 10.0 0.00 0.00 0.00 81 1012.7
20260502223640 60 303 7.0 10.0 0.00 0.00 0.00 82 1012.8
20260502223249 59 25 7.0 9.0 0.00 0.00 0.00 82 1012.9
20260502223133 59 25 6.0 9.0 0.00 0.00 0.00 82 1012.9
20260502222732 59 347 5.0 14.0 0.00 0.00 0.00 82 1013.0
20260502222626 59 347 5.0 14.0 0.00 0.00 0.00 81 1013.0
20260502222215 59 313 9.0 14.0 0.00 0.00 0.00 82 1013.0
20260502222119 59 313 8.0 14.0 0.00 0.00 0.00 82 1013.0
20260502221658 59 343 7.0 14.0 0.00 0.00 0.00 83 1013.1
20260502221612 59 343 8.0 14.0 0.00 0.00 0.00 82 1013.0
20260502221141 59 36 7.0 9.0 0.00 0.00 0.00 83 1013.0
20260502221105 59 36 6.0 9.0 0.00 0.00 0.00 83 1013.0
20260502220624 58 7 8.0 14.0 0.00 0.00 0.00 84 1013.1
20260502220559 58 7 7.0 14.0 0.00 0.00 0.00 84 1013.1
20260502220107 58 347 5.0 14.0 0.00 0.00 0.00 84 1013.1
20260502220051 58 347 5.0 14.0 0.00 0.00 0.00 84 1013.1
20260502215550 58 336 8.0 14.0 0.00 0.00 0.00 84 1013.2
20260502215544 58 336 7.0 14.0 0.00 0.00 0.00 84 1013.2
20260502215037 58 326 8.0 11.0 0.00 0.00 0.00 83 1013.1
20260502215033 58 326 8.0 11.0 0.00 0.00 0.00 83 1013.1
20260502214516 58 317 10.0 11.0 0.00 0.00 0.00 81 1013.1
20260502214023 59 334 6.0 10.0 0.00 0.00 0.00 82 1013.1
20260502213959 59 334 8.0 10.0 0.00 0.00 0.00 82 1013.1
20260502213516 59 32 5.0 11.0 0.00 0.00 0.00 83 1013.2
20260502213442 59 319 7.0 11.0 0.00 0.00 0.00 83 1013.2
20260502213010 58 11 3.0 11.0 0.00 0.00 0.00 83 1013.2
20260502212925 58 11 4.0 11.0 0.00 0.00 0.00 83 1013.2
20260502212502 58 302 9.0 11.0 0.00 0.00 0.00 83 1013.1
20260502212408 58 302 8.0 11.0 0.00 0.00 0.00 84 1013.2
20260502211955 58 313 6.0 11.0 0.00 0.00 0.00 82 1013.2
20260502211851 58 313 8.0 11.0 0.00 0.00 0.00 82 1013.3
20260502211448 59 296 7.0 10.0 0.00 0.00 0.00 80 1013.4
20260502211334 59 322 7.0 10.0 0.00 0.00 0.00 81 1013.4
20260502210941 60 326 7.0 10.0 0.00 0.00 0.00 82 1013.5
20260502210817 59 337 6.0 10.0 0.00 0.00 0.00 83 1013.5
20260502210434 59 316 8.0 13.0 0.00 0.00 0.00 83 1013.7
20260502210300 59 0 0.0 13.0 0.00 0.00 0.00 82 1013.7
20260502205927 59 337 9.0 13.0 0.00 0.00 0.00 82 1013.5
20260502205743 59 320 7.0 13.0 0.00 0.00 0.00 82 1013.5
20260502205420 59 320 7.0 13.0 0.00 0.00 0.00 81 1013.5
20260502205226 59 331 10.0 13.0 0.00 0.00 0.00 81 1013.6
20260502204914 59 317 8.0 13.0 0.00 0.00 0.00 82 1013.6
20260502204709 59 310 10.0 13.0 0.00 0.00 0.00 82 1013.6